DW4719 Vilanova I la Geltru ES current weather conditions

sailwx.info

Wind from 065 at 0 knots

Air temperature 11.7° C
Dewpoint 6.4° C

Last reported at 2014-Dec-20 17:50 UTC.
Time now 2014-Dec-20 18:39 UTC

Location: N 41°13' E 001°44'.
View on Google Maps.

See reports from other nearby stations

  
Tides and Currents Weather Stations Pressure Air Temp Water Temp Dewpoint Dewpoint Depression Visibility Wind Speed Wind Dir Waves Ship Positions
date/time (UTC)wind fromknots sea level pressurealtimeterstation pressurevisibilityair tempwater tempwave heightnotes
2014-Dec-20 17:50 065 0 11.7
2014-Dec-20 17:45 066 1 11.7
2014-Dec-20 17:41 066 0 11.7
2014-Dec-20 17:35 065 0 11.7
2014-Dec-20 17:30 059 1 11.7
2014-Dec-20 17:25 058 0 12.2
2014-Dec-20 17:20 054 0 12.2
2014-Dec-20 17:15 071 12.2
2014-Dec-20 17:11 073 12.2
2014-Dec-20 17:05 064 12.2
2014-Dec-20 17:00 041 12.2
2014-Dec-20 16:55 062 12.8
2014-Dec-20 16:50 342 12.8
2014-Dec-20 16:45 056 12.8
2014-Dec-20 16:41 058 12.8
2014-Dec-20 16:35 041 13.3
2014-Dec-20 16:30 032 13.3
2014-Dec-20 16:25 062 13.9
2014-Dec-20 16:20 069 13.9
2014-Dec-20 16:15 069 13.9
2014-Dec-20 16:10 042 13.9
2014-Dec-20 16:05 042 14.4
2014-Dec-20 16:00 058 14.4
2014-Dec-20 15:55 058 14.4
2014-Dec-20 15:50 061 14.4
2014-Dec-20 15:45 059 15.0
2014-Dec-20 15:40 055 15.0
2014-Dec-20 15:35 360 15.0
2014-Dec-20 15:30 356 15.6
2014-Dec-20 15:25 360 15.6
2014-Dec-20 15:20 360 15.6
2014-Dec-20 15:14 006 16.1
2014-Dec-20 15:10 006 16.1
2014-Dec-20 15:05 007 16.1
2014-Dec-20 15:00 007 16.1
2014-Dec-20 14:55 030 16.1
2014-Dec-20 14:50 030 16.1
2014-Dec-20 14:44 030 16.1
2014-Dec-20 14:41 030 16.1
2014-Dec-20 14:35 030 16.1
2014-Dec-20 14:30 027 16.1
2014-Dec-20 14:25 027 16.1
2014-Dec-20 14:20 027 16.1
2014-Dec-20 14:14 027 16.1
2014-Dec-20 14:10 027 16.1
2014-Dec-20 14:05 008 16.1
2014-Dec-20 14:00 007 16.1
2014-Dec-20 13:55 007 15.6
2014-Dec-20 13:50 007 15.6
2014-Dec-20 13:46 016 15.6
2014-Dec-20 13:40 014 15.6
2014-Dec-20 13:35 011 15.6
2014-Dec-20 13:30 011 0 15.6
2014-Dec-20 13:25 360 0 15.6
2014-Dec-20 13:20 357 15.6
2014-Dec-20 13:16 360 15.6
2014-Dec-20 13:10 360 15.6
2014-Dec-20 13:05 305 15.6
2014-Dec-20 13:00 007 0 15.0
2014-Dec-20 12:55 360 0 15.0
2014-Dec-20 12:50 018 0 15.0
2014-Dec-20 12:46 343 15.0
2014-Dec-20 12:40 032 15.0
2014-Dec-20 12:35 025 15.0
2014-Dec-20 12:30 004 15.0
2014-Dec-20 12:25 360 15.0
2014-Dec-20 12:20 360 15.0
2014-Dec-20 12:15 058 0 14.4
2014-Dec-20 12:10 360 1 14.4
2014-Dec-20 12:05 032 1 14.4
2014-Dec-20 12:00 024 0 14.4
2014-Dec-20 11:55 337 0 14.4
2014-Dec-20 11:50 326 2 13.9
2014-Dec-20 11:45 357 2 13.9
2014-Dec-20 11:40 354 1 13.9
2014-Dec-20 11:35 342 2 13.9
2014-Dec-20 11:30 360 2 13.3
2014-Dec-20 11:25 008 0 13.3
2014-Dec-20 11:19 018 13.3
2014-Dec-20 11:15 010 13.3
2014-Dec-20 11:10 360 13.3
2014-Dec-20 11:05 024 12.8
2014-Dec-20 11:00 360 12.8
2014-Dec-20 10:55 282 12.2
2014-Dec-20 10:49 006 12.2
2014-Dec-20 10:45 003 12.2
2014-Dec-20 10:40 360 11.7
2014-Dec-20 10:35 360 11.7
2014-Dec-20 10:30 357 11.7
2014-Dec-20 10:25 052 11.7
2014-Dec-20 10:21 068 11.7
2014-Dec-20 10:15 068 11.7
2014-Dec-20 10:10 068 11.7
2014-Dec-20 10:05 069 11.1
2014-Dec-20 10:00 059 11.1
2014-Dec-20 09:55 056 11.1
2014-Dec-20 09:51 066 11.1
2014-Dec-20 09:45 035 11.1
2014-Dec-20 09:40 126 11.1
2014-Dec-20 09:35 342 11.1
2014-Dec-20 09:30 353 11.1
2014-Dec-20 09:25 044 10.6
2014-Dec-20 09:20 336 10.6
2014-Dec-20 09:15 018 10.6
2014-Dec-20 09:10 086 0 10.6
2014-Dec-20 09:05 096 0 10.6
2014-Dec-20 09:00 010 10.6
2014-Dec-20 08:55 128 10.6
2014-Dec-20 08:50 028 10.6
2014-Dec-20 08:45 085 0 10.6
2014-Dec-20 08:40 356 1 10.6
2014-Dec-20 08:35 020 0 10.6
2014-Dec-20 08:30 085 0 10.6
2014-Dec-20 08:24 196 10.6
2014-Dec-20 08:20 100 10.6
2014-Dec-20 08:15 066 10.6
2014-Dec-20 08:10 099 0 10.6
2014-Dec-20 08:05 061 1 10.6
2014-Dec-20 08:00 104 0 10.6
2014-Dec-20 07:54 308 0 10.6
2014-Dec-20 07:51 066 1 10.6
2014-Dec-20 07:45 048 1 11.1
2014-Dec-20 07:40 086 0 11.1
2014-Dec-20 07:35 058 1 11.1
2014-Dec-20 07:30 079 1 11.1
2014-Dec-20 07:24 056 1 11.1
2014-Dec-20 07:20 062 0 11.1
2014-Dec-20 07:15 035 0 11.1
2014-Dec-20 07:10 062 0 11.1
2014-Dec-20 07:05 065 0 11.1
2014-Dec-20 07:00 066 1 11.1
2014-Dec-20 06:56 296 1 11.1
2014-Dec-20 06:50 047 0 11.1
2014-Dec-20 06:45 353 0 11.1
2014-Dec-20 06:40 064 1 11.1
2014-Dec-20 06:35 066 2 11.1
2014-Dec-20 06:30 066 3 11.1
2014-Dec-20 06:26 052 3 11.1
2014-Dec-20 06:20 028 1 11.1
2014-Dec-20 06:15 071 2 11.1
2014-Dec-20 06:10 078 2 11.1
2014-Dec-20 06:05 079 1 11.1
2014-Dec-20 06:00 056 1 11.1
2014-Dec-20 05:55 073 1 11.1
2014-Dec-20 05:50 078 0 11.1
2014-Dec-20 05:45 066 0 11.1
2014-Dec-20 05:40 061 2 11.1
2014-Dec-20 05:35 083 3 11.1
2014-Dec-20 05:30 110 1 11.1
2014-Dec-20 05:25 076 0 11.1
2014-Dec-20 05:20 172 0 11.1
2014-Dec-20 05:15 034 0 11.1
2014-Dec-20 05:10 062 0 11.1
2014-Dec-20 05:05 045 0 11.1
2014-Dec-20 04:59 018 1 11.1
2014-Dec-20 04:55 040 1 11.1
2014-Dec-20 04:50 075 1 11.1
2014-Dec-20 04:45 085 1 11.1
2014-Dec-20 04:40 058 2 11.1
2014-Dec-20 04:35 045 1 11.1
2014-Dec-20 04:29 086 0 11.1
2014-Dec-20 04:25 051 0 11.1
2014-Dec-20 04:20 082 0 11.1
2014-Dec-20 04:15 016 1 11.1
2014-Dec-20 04:10 059 0 11.1
2014-Dec-20 04:05 340 0 11.1
2014-Dec-20 03:59 326 0 11.1
2014-Dec-20 03:55 042 0 11.1
2014-Dec-20 03:50 346 1 11.1
2014-Dec-20 03:45 079 0 11.1
2014-Dec-20 03:40 059 0 11.1
2014-Dec-20 03:35 049 11.1
2014-Dec-20 03:31 034 11.1
2014-Dec-20 03:25 073 0 11.1
2014-Dec-20 03:20 064 0 11.1
2014-Dec-20 03:15 073 11.1
2014-Dec-20 03:10 178 11.1
2014-Dec-20 03:05 062 11.1
2014-Dec-20 03:01 059 11.1
2014-Dec-20 02:55 075 11.1
2014-Dec-20 02:50 008 11.1
2014-Dec-20 02:45 047 11.1
2014-Dec-20 02:40 051 11.1
2014-Dec-20 02:35 031 11.1
2014-Dec-20 02:30 042 11.7
2014-Dec-20 02:25 066 11.7
2014-Dec-20 02:20 049 11.7
2014-Dec-20 02:15 079 11.7
2014-Dec-20 02:07 069 0 11.7
2014-Dec-20 02:04 066 0 11.7
2014-Dec-20 02:00 059 0 11.7
2014-Dec-20 01:55 051 11.7
2014-Dec-20 01:50 042 11.7
2014-Dec-20 01:45 069 0 11.7
2014-Dec-20 01:40 076 0 11.1
2014-Dec-20 01:34 038 11.1
2014-Dec-20 01:30 083 11.1
2014-Dec-20 01:25 064 0 11.1
2014-Dec-20 01:20 073 11.1
2014-Dec-20 01:15 079 11.1
2014-Dec-20 01:10 346 11.1
2014-Dec-20 01:04 065 11.1
2014-Dec-20 01:01 054 11.1
2014-Dec-20 00:55 062 11.1
2014-Dec-20 00:50 088 11.1
2014-Dec-20 00:45 024 11.1
2014-Dec-20 00:40 025 11.1
2014-Dec-20 00:34 117 11.1
2014-Dec-20 00:31 078 11.1
2014-Dec-20 00:25 027 0 11.1
2014-Dec-20 00:20 027 0 11.1
2014-Dec-20 00:15 333 11.1
2014-Dec-20 00:10 034 11.1
2014-Dec-20 00:04 072 11.1
2014-Dec-20 00:00 072 11.1
2014-Dec-19 23:55 343 11.1
2014-Dec-19 23:50 096 11.1
2014-Dec-19 23:45 068 0 11.1
2014-Dec-19 23:40 069 0 11.1
2014-Dec-19 23:36 083 0 11.1
2014-Dec-19 23:30 062 0 11.1
2014-Dec-19 23:25 073 0 11.1
2014-Dec-19 23:20 322 0 11.1
2014-Dec-19 23:15 072 0 11.1
2014-Dec-19 23:10 078 1 11.1
2014-Dec-19 23:06 078 2 11.1
2014-Dec-19 23:00 038 1 11.1
2014-Dec-19 22:55 085 1 11.1
2014-Dec-19 22:50 061 2 11.1
2014-Dec-19 22:45 065 2 11.1
2014-Dec-19 22:40 055 1 11.1
2014-Dec-19 22:35 035 2 11.1
2014-Dec-19 22:30 040 3 11.1
2014-Dec-19 22:25 052 3 11.1
2014-Dec-19 22:20 066 2 11.1
2014-Dec-19 22:15 076 1 11.1
2014-Dec-19 22:10 079 10.6
2014-Dec-19 22:05 051 0 10.6
2014-Dec-19 22:00 078 0 10.6
2014-Dec-19 21:55 061 1 10.6
2014-Dec-19 21:50 058 2 10.6
2014-Dec-19 21:45 097 2 10.6
2014-Dec-19 21:39 073 2 10.6
2014-Dec-19 21:35 040 2 10.6
2014-Dec-19 21:30 056 4 10.6
2014-Dec-19 21:25 061 2 10.6
2014-Dec-19 21:20 069 1 10.6
2014-Dec-19 21:15 052 2 10.6
2014-Dec-19 21:09 058 3 10.6
2014-Dec-19 21:06 061 3 10.6
2014-Dec-19 21:00 072 3 10.6
2014-Dec-19 20:55 052 3 10.6
2014-Dec-19 20:50 052 4 10.6
2014-Dec-19 20:45 054 3 10.6
2014-Dec-19 20:41 020 3 10.6
2014-Dec-19 20:35 054 3 10.6
2014-Dec-19 20:30 085 1 10.6
2014-Dec-19 20:25 048 1 10.6
2014-Dec-19 20:20 059 2 10.6
2014-Dec-19 20:15 068 3 10.6
2014-Dec-19 20:11 045 3 10.6
2014-Dec-19 20:05 037 1 10.6
2014-Dec-19 20:00 079 0 10.6
2014-Dec-19 19:55 072 1 10.6
2014-Dec-19 19:50 040 0 10.6
2014-Dec-19 19:45 061 0 10.6
2014-Dec-19 19:41 064 1 10.6
2014-Dec-19 19:35 064 1 10.6
2014-Dec-19 19:30 360 1 11.1
2014-Dec-19 19:25 062 2 11.1
2014-Dec-19 19:20 065 3 11.1
2014-Dec-19 19:15 065 2 11.1
2014-Dec-19 19:10 056 0 11.1
2014-Dec-19 19:05 061 11.1
2014-Dec-19 19:00 064 0 11.1
2014-Dec-19 18:55 059 1 11.1
2014-Dec-19 18:50 056 1 10.6
2014-Dec-19 18:45 066 1 10.6
2014-Dec-19 18:40 079 0 10.6
2014-Dec-19 18:35 064 0 10.6
2014-Dec-19 18:30 041 0 10.6
2014-Dec-19 18:25 078 10.6
2014-Dec-19 18:20 059 0 10.6
2014-Dec-19 18:14 004 2 10.6
2014-Dec-19 18:10 058 1 11.1
2014-Dec-19 18:05 071 2 11.1
2014-Dec-19 18:00 065 3 11.1
2014-Dec-19 17:55 061 2 11.1
2014-Dec-19 17:50 054 1 11.1
2014-Dec-19 17:44 068 1 11.1
2014-Dec-19 17:41 062 2 11.1
2014-Dec-19 17:35 052 3 11.1
2014-Dec-19 17:30 055 2 11.1
2014-Dec-19 17:25 059 2 11.1
2014-Dec-19 17:20 071 1 11.7
2014-Dec-19 17:13 072 1 11.7
2014-Dec-19 17:10 353 1 11.7
2014-Dec-19 17:05 061 0 11.7
2014-Dec-19 17:00 058 11.7
2014-Dec-19 16:55 068 0 12.2
2014-Dec-19 16:50 061 1 12.2
2014-Dec-19 16:44 059 2 12.2
2014-Dec-19 16:40 038 4 12.2
2014-Dec-19 16:35 066 3 12.8
2014-Dec-19 16:30 079 0 12.8
2014-Dec-19 16:25 058 13.3
2014-Dec-19 16:20 061 13.3
2014-Dec-19 16:16 037 13.9
2014-Dec-19 16:10 032 13.9
2014-Dec-19 16:05 066 13.9
2014-Dec-19 16:00 058 13.9
2014-Dec-19 15:55 058 0 14.4
2014-Dec-19 15:50 073 1 14.4
2014-Dec-19 15:45 059 0 14.4
2014-Dec-19 15:40 058 1 15.0
2014-Dec-19 15:35 071 1 15.0
2014-Dec-19 15:30 079 0 15.6
2014-Dec-19 15:25 068 15.6
2014-Dec-19 15:20 068 15.6
2014-Dec-19 15:15 085 16.1
2014-Dec-19 15:10 086 0 16.1
2014-Dec-19 15:05 083 0 16.1
2014-Dec-19 15:00 058 16.7
2014-Dec-19 14:55 014 0 16.7
2014-Dec-19 14:49 003 0 16.7
2014-Dec-19 14:45 325 17.2
2014-Dec-19 14:40 315 17.2
2014-Dec-19 14:35 315 17.2
2014-Dec-19 14:30 315 17.2
2014-Dec-19 14:25 189 17.2
2014-Dec-19 14:19 189 16.7
2014-Dec-19 14:16 182 17.2
2014-Dec-19 14:10 185 17.2
2014-Dec-19 14:05 185 17.2
2014-Dec-19 14:00 185 17.2
2014-Dec-19 13:55 185 17.2
2014-Dec-19 13:51 185 17.2
2014-Dec-19 13:45 185 17.2
2014-Dec-19 13:40 185 17.2
2014-Dec-19 13:35 189 17.2
2014-Dec-19 13:30 192 17.2
2014-Dec-19 13:25 192 17.2
2014-Dec-19 13:21 192 17.2
2014-Dec-19 13:15 192 17.2
2014-Dec-19 13:10 192 17.8
2014-Dec-19 13:05 195 17.8
2014-Dec-19 13:00 260 17.8
2014-Dec-19 12:55 003 18.3
2014-Dec-19 12:51 003 17.8
2014-Dec-19 12:45 001 17.8
2014-Dec-19 12:40 360 17.2
2014-Dec-19 12:35 360 17.2
2014-Dec-19 12:30 027 17.2
2014-Dec-19 12:25 020 17.2
2014-Dec-19 12:20 011 17.2
2014-Dec-19 12:15 071 16.7
2014-Dec-19 12:10 058 16.7
2014-Dec-19 12:05 044 16.7
2014-Dec-19 12:00 089 17.2
2014-Dec-19 11:54 350 17.2
2014-Dec-19 11:51 350 17.2
2014-Dec-19 11:45 350 16.7
2014-Dec-19 11:40 349 16.7
2014-Dec-19 11:35 347 16.7
2014-Dec-19 11:30 359 16.7
2014-Dec-19 11:26 357 16.7
2014-Dec-19 11:20 353 16.7
2014-Dec-19 11:15 336 16.7
2014-Dec-19 11:10 333 16.1
2014-Dec-19 11:05 333 16.1
2014-Dec-19 11:00 329 16.1
2014-Dec-19 10:56 323 16.1
2014-Dec-19 10:50 072 16.1
2014-Dec-19 10:45 072 15.6
2014-Dec-19 10:40 072 15.6
2014-Dec-19 10:35 065 15.6
2014-Dec-19 10:30 072 15.6
2014-Dec-19 10:26 065 15.6
2014-Dec-19 10:20 052 15.6
2014-Dec-19 10:15 052 15.6
2014-Dec-19 10:10 054 15.6
2014-Dec-19 10:05 054 15.6
2014-Dec-19 10:00 072 15.6
2014-Dec-19 09:55 073 15.6
2014-Dec-19 09:50 075 15.0
2014-Dec-19 09:45 079 15.0
2014-Dec-19 09:40 082 15.0
2014-Dec-19 09:35 058 15.0
2014-Dec-19 09:30 011 15.0
2014-Dec-19 09:25 011 14.4
2014-Dec-19 09:20 011 14.4
2014-Dec-19 09:15 011 13.9
2014-Dec-19 09:10 011 13.9
2014-Dec-19 09:05 011 13.9
2014-Dec-19 08:59 011 13.9
2014-Dec-19 08:55 011 13.3
2014-Dec-19 08:50 011 13.3
2014-Dec-19 08:45 011 12.8
2014-Dec-19 08:40 013 12.8
2014-Dec-19 08:35 360 12.8
2014-Dec-19 08:29 360 12.2
2014-Dec-19 08:26 360 12.2
2014-Dec-19 08:20 360 12.2
2014-Dec-19 08:15 360 11.7
2014-Dec-19 08:10 360 11.7
2014-Dec-19 08:05 360 11.7
2014-Dec-19 08:01 360 11.7
2014-Dec-19 07:55 360 11.7
2014-Dec-19 07:50 360 11.1
2014-Dec-19 07:45 360 11.1
2014-Dec-19 07:37 360 11.1
2014-Dec-19 07:35 360 10.6
2014-Dec-19 07:31 360 10.6
2014-Dec-19 07:25 360 10.6
2014-Dec-19 07:20 360 10.6
2014-Dec-19 07:15 360 10.6
2014-Dec-19 07:10 360 10.6
2014-Dec-19 07:05 360 10.6
2014-Dec-19 07:01 360 10.6
2014-Dec-19 06:55 360 10.6
2014-Dec-19 06:50 360 10.6
2014-Dec-19 06:45 360 10.6
2014-Dec-19 06:40 360 10.6
2014-Dec-19 06:34 360 10.6
2014-Dec-19 06:30 360 10.6
2014-Dec-19 06:25 360 10.6
2014-Dec-19 06:20 360 10.6
2014-Dec-19 06:15 360 10.6
2014-Dec-19 06:10 360 10.6
2014-Dec-19 06:05 360 10.6
2014-Dec-19 06:00 360 10.6
2014-Dec-19 05:55 360 10.6
2014-Dec-19 05:50 360 10.6
2014-Dec-19 05:45 360 10.6
2014-Dec-19 05:40 360 10.6
2014-Dec-19 05:34 360 10.6
2014-Dec-19 05:30 360 10.6
2014-Dec-19 05:25 360 11.1
2014-Dec-19 05:20 360 11.1
2014-Dec-19 05:15 360 11.1
2014-Dec-19 05:10 360 11.1
2014-Dec-19 05:04 360 11.1
2014-Dec-19 05:01 360 10.6
2014-Dec-19 04:55 360 10.6
2014-Dec-19 04:50 360 11.1
2014-Dec-19 04:45 360 11.1
2014-Dec-19 04:40 360 11.1
2014-Dec-19 04:36 360 11.1
2014-Dec-19 04:30 360 11.1
2014-Dec-19 04:25 360 11.1
2014-Dec-19 04:20 360 11.1
2014-Dec-19 04:15 360 11.1
2014-Dec-19 04:10 360 11.1
2014-Dec-19 04:06 360 11.1
2014-Dec-19 04:00 360 11.1
2014-Dec-19 03:55 360 11.1
2014-Dec-19 03:50 360 11.1
2014-Dec-19 03:45 360 11.1
2014-Dec-19 03:40 360 11.1
2014-Dec-19 03:36 360 11.1
2014-Dec-19 03:30 360 11.1
2014-Dec-19 03:25 360 11.1
2014-Dec-19 03:20 360 11.1
2014-Dec-19 03:15 360 11.1
2014-Dec-19 03:10 360 11.1
2014-Dec-19 03:05 360 11.1
2014-Dec-19 03:00 360 11.1
2014-Dec-19 02:55 360 11.1
2014-Dec-19 02:50 360 11.1
2014-Dec-19 02:45 360 11.1
2014-Dec-19 02:40 360 11.1
2014-Dec-19 02:35 360 11.1
2014-Dec-19 02:30 360 11.7
2014-Dec-19 02:25 360 11.7
2014-Dec-19 02:20 360 11.7
2014-Dec-19 02:15 360 11.7
2014-Dec-19 02:09 360 11.7
2014-Dec-19 02:05 360 11.7
2014-Dec-19 02:00 360 11.7
2014-Dec-19 01:55 360 11.7
2014-Dec-19 01:50 360 11.7
2014-Dec-19 01:45 360 11.7
2014-Dec-19 01:39 360 11.7
2014-Dec-19 01:36 360 11.7
2014-Dec-19 01:30 360 11.7
2014-Dec-19 01:25 360 12.2
2014-Dec-19 01:20 360 12.2
2014-Dec-19 01:15 360 12.2
2014-Dec-19 01:11 360 12.2
2014-Dec-19 01:05 360 12.2
2014-Dec-19 01:00 360 12.2
2014-Dec-19 00:55 360 12.2
2014-Dec-19 00:50 360 12.2
2014-Dec-19 00:45 360 12.2
2014-Dec-19 00:41 360 12.2
2014-Dec-19 00:35 360 12.8
2014-Dec-19 00:30 360 12.8
2014-Dec-19 00:25 360 12.8
2014-Dec-19 00:20 360 12.8
2014-Dec-19 00:15 360 12.8
2014-Dec-19 00:11 360 12.8
2014-Dec-19 00:05 360 12.8
2014-Dec-19 00:00 360 12.8
2014-Dec-18 23:55 360 12.8
2014-Dec-18 23:50 354 12.8
2014-Dec-18 23:45 353 12.8
2014-Dec-18 23:40 352 12.8
2014-Dec-18 23:35 352 12.8
2014-Dec-18 23:30 349 12.8
2014-Dec-18 23:25 350 13.3
2014-Dec-18 23:20 349 13.3
2014-Dec-18 23:14 360 13.3
2014-Dec-18 23:10 360 13.3
2014-Dec-18 23:05 360 13.3
2014-Dec-18 23:00 018 13.3
2014-Dec-18 22:55 018 13.3
2014-Dec-18 22:50 018 13.3
2014-Dec-18 22:44 018 13.3
2014-Dec-18 22:40 018 13.9
2014-Dec-18 22:35 028 13.9
2014-Dec-18 22:30 028 13.9
2014-Dec-18 22:25 028 13.9
2014-Dec-18 22:20 027 13.9
2014-Dec-18 22:14 027 13.9
2014-Dec-18 22:10 027 13.9
2014-Dec-18 22:05 027 13.9
2014-Dec-18 22:00 027 13.9
2014-Dec-18 21:55 027 13.9
2014-Dec-18 21:50 027 13.9
2014-Dec-18 21:46 027 13.9
2014-Dec-18 21:40 035 13.9
2014-Dec-18 21:35 031 13.9
2014-Dec-18 21:30 158 13.9
2014-Dec-18 21:25 158 13.9
2014-Dec-18 21:20 158 13.9
2014-Dec-18 21:16 158 13.9
2014-Dec-18 21:10 158 14.4
2014-Dec-18 21:05 158 14.4
2014-Dec-18 21:00 158 14.4
2014-Dec-18 20:55 158 14.4
2014-Dec-18 20:50 158 14.4
2014-Dec-18 20:45 158 14.4
2014-Dec-18 20:40 158 14.4
2014-Dec-18 20:35 158 14.4
2014-Dec-18 20:30 158 14.4
2014-Dec-18 20:25 158 14.4
2014-Dec-18 20:20 158 14.4
2014-Dec-18 20:15 158 14.4
2014-Dec-18 20:10 158 14.4
2014-Dec-18 20:05 181 14.4
2014-Dec-18 20:00 184 14.4
2014-Dec-18 19:55 184 14.4
2014-Dec-18 19:50 184 14.4
2014-Dec-18 19:45 184 14.4
2014-Dec-18 19:40 184 14.4
2014-Dec-18 19:35 184 14.4
2014-Dec-18 19:30 184 14.4
2014-Dec-18 19:25 184 14.4
2014-Dec-18 19:19 185 14.4
2014-Dec-18 19:15 185 14.4
2014-Dec-18 19:10 184 14.4
2014-Dec-18 19:05 184 14.4
2014-Dec-18 19:00 184 14.4
2014-Dec-18 18:55 184 14.4
2014-Dec-18 18:49 184 14.4
2014-Dec-18 18:46 184 14.4
2014-Dec-18 18:40 184 14.4
2014-Dec-18 18:35 184 14.4
2014-Dec-18 18:30 184 15.0
2014-Dec-18 18:25 185 15.0
2014-Dec-18 18:21 185 15.0
2014-Dec-18 18:15 185 15.0
2014-Dec-18 18:10 185 15.0
2014-Dec-18 18:05 185 15.6
2014-Dec-18 18:00 185 15.6